Home > Weather > Schwedt/Oder > Past weeks

Flag for Germany Weather for the Past 2 Weeks in Schwedt/Oder, Brandenburg, Germany

Now
39 °F

Light rain. Fog.


Feels Like: 34 °F
Forecast: 38 / 42 °F
Wind: 8 mph from East

Location: Szczecin Airport

Current Time: Feb 14, 2016 at 4:52:34 PM

Latest Report: Feb 14, 2016 at 4:30 PM


Visibility: 3 mi

Pressure: 29.33 "Hg

Humidity: 87%

Dew point: 36 °F

Location of Schwedt/OderLocation

Historic Weather in Schwedt/Oder — Graph

°F

Schwedt/Oder Temperature Yesterday

Maximum temperature yesterday: 43 °F (at 1:00 PM)
Minimum temperature yesterday: 27 °F (at 1:00 AM)
Average temperature yesterday: 33 °F

High & Low Weather Summary for the Past Weeks

 TemperatureHumidityPressure
High52 °F (Feb 7, 1:00 PM)100% (Feb 1, 2:30 PM)30.18 "Hg (Feb 1, 2:30 PM)
Low27 °F (Feb 13, 1:00 AM)50% (Feb 9, 12:30 PM)28.94 "Hg (Feb 10, 12:00 AM)
Average40 °F83%29.60 "Hg
* Reported Jan 30 4:00 PM — Feb 14 4:00 PM, Schwedt/Oder, Weather by CustomWeather, © 2016

Note: Actual official high and low records may vary slightly from our data, if they occured in-between our weather recording intervals... More about our weather records

Advertising

Schwedt/Oder Weather History for the Previous 24 Hours

 ConditionsComfort  
Time TempWeatherWind HumidityBarometerVisibility
4:00 PM
Sun, Feb 14
39 °FLight rain. Broken clouds.7 mph87%29.33 "Hg4 mi
3:30 PM39 °FPartly sunny.9 mph81%29.30 "Hg5 mi
3:00 PM39 °FPartly sunny.9 mph81%29.30 "Hg5 mi
2:30 PM39 °FPartly sunny.10 mph81%29.30 "Hg5 mi
2:00 PM39 °FBroken clouds.9 mph87%29.30 "Hg4 mi
1:30 PM39 °FPartly sunny.9 mph81%29.30 "Hg5 mi
1:00 PM39 °FPartly sunny.10 mph81%29.30 "Hg4 mi
12:30 PM37 °FPartly sunny.9 mph87%29.30 "Hg4 mi
12:00 PM37 °FPartly sunny.10 mph87%29.30 "Hg4 mi
11:30 AM37 °FFog.8 mph87%29.27 "Hg3 mi
11:00 AM37 °FDrizzle. Fog.9 mph87%29.27 "Hg2 mi
10:30 AM36 °FFog.9 mph93%29.27 "Hg2 mi
10:00 AM36 °FFog.9 mph93%29.30 "Hg3 mi
9:30 AM36 °FFog.7 mph93%29.27 "Hg3 mi
9:00 AM36 °FFog.8 mph93%29.27 "Hg3 mi
8:30 AM36 °FFog.9 mph93%29.27 "Hg2 mi
8:00 AM36 °FFog.8 mph93%29.27 "Hg2 mi
7:30 AM34 °FFog.8 mph93%29.27 "Hg2 mi
7:00 AM34 °FFog.9 mph93%29.27 "Hg3 mi
6:30 AM34 °FFog.8 mph93%29.27 "Hg3 mi
6:00 AM34 °FFog.10 mph93%29.27 "Hg3 mi
5:30 AM32 °FIce fog.8 mph93%29.30 "Hg3 mi
5:00 AM32 °FIce fog.9 mph93%29.30 "Hg3 mi
4:30 AM32 °FIce fog.9 mph93%29.30 "Hg3 mi
4:00 AM32 °FIce fog.8 mph93%29.30 "Hg3 mi
3:30 AM32 °FPassing clouds.8 mph93%29.30 "Hg4 mi
3:00 AM32 °FOvercast.7 mph93%29.30 "Hg4 mi
2:30 AM32 °FOvercast.7 mph93%29.33 "Hg4 mi
2:00 AM32 °FPassing clouds.8 mph93%29.33 "HgN/A
1:30 AM32 °FPassing clouds.6 mph93%29.33 "HgN/A
1:00 AM32 °FPassing clouds.6 mph93%29.33 "HgN/A
12:30 AM34 °FMostly cloudy.6 mph87%29.36 "HgN/A
12:00 AM34 °FPassing clouds.3 mph87%29.36 "HgN/A
11:30 PM
Sat, Feb 13
34 °FPassing clouds.7 mph87%29.36 "HgN/A
11:00 PM34 °FPartly cloudy.10 mph87%29.36 "Hg5 mi
10:30 PM34 °FPartly cloudy.9 mph87%29.36 "Hg4 mi
10:00 PM32 °FIce fog.9 mph93%29.39 "Hg3 mi
9:30 PM32 °FIce fog.10 mph93%29.39 "Hg3 mi
9:00 PM32 °FIce fog.13 mph93%29.39 "Hg3 mi
8:30 PM32 °FIce fog.8 mph93%29.39 "Hg3 mi
8:00 PM32 °FPartly cloudy.8 mph93%29.39 "Hg4 mi
7:30 PM32 °FPartly cloudy.9 mph93%29.39 "Hg4 mi
7:00 PM32 °FIce fog.9 mph93%29.39 "Hg3 mi
6:30 PM34 °FFog.8 mph93%29.42 "Hg3 mi
6:00 PM32 °FIce fog.13 mph100%29.42 "Hg3 mi
5:30 PM34 °FFog.9 mph93%29.42 "Hg2 mi
5:00 PM34 °FFog.9 mph93%29.42 "Hg2 mi
4:30 PM36 °FFog.12 mph87%29.42 "Hg3 mi
4:00 PM37 °FScattered clouds.13 mph87%29.42 "Hg4 mi
Weather by CustomWeather, © 2016

See weather overviewHow to use our weather pages